Regional Weather Roundup
Issued by NWS

Home | Current Version | Previous Version | Graphics & Text | Print | Product List | Glossary On
Versions: 1 2 3 4 5 6 7 8 9 10 11 12 13 14 15 16 17 18 19 20 21 22 23 24 25 26 27 28 29 30 31 32 33 34 35 36 37 38 39 40 41 42 43 44 45 46 47 48 49 50
000
ASUS45 KBOU 271907
RWRCO

WEATHER ROUNDUP FOR COLORADO
NATIONAL WEATHER SERVICE DENVER/BOULDER CO
100 PM MDT SUN JUL 27 2014

NOTE: "FAIR" INDICATES FEW OR NO CLOUDS BELOW 12000 FEET WITH NO
SIGNIFICANT WEATHER AND/OR OBSTRUCTIONS TO VISIBILITY.

COZ001>005-013-030-031-272000-
...NORTHWEST COLORADO...

CITY           SKY/WX    TMP DP  RH WIND       PRES   REMARKS
CRAIG          PTSUNNY   72  50  45 CALM      30.38F
HAYDEN         PTSUNNY   77  46  33 N7        30.40S
MEEKER         CLOUDY    73  50  44 S6        30.40S
MOUNT WERNER   NOT AVBL
STEAMBOAT SPGS PTSUNNY   74  49  40 CALM      30.42S
WALDEN         SUNNY     77  34  20 NW3       30.50S
$$

COZ006>008-011-272000-
...WEST CENTRAL VALLEYS...

CITY           SKY/WX    TMP DP  RH WIND       PRES   REMARKS
GRAND JUNCTION MOSUNNY   91  50  24 W9G18     30.21F
MONTROSE       MOSUNNY   89  48  24 N7        30.29F
EAGLE          MOSUNNY   72  52  49 CALM      30.42F
RIFLE          PTSUNNY   80  48  32 CALM      30.30F
DELTA          MOSUNNY   91  48  22 CALM      30.23F
NUCLA          MOSUNNY   86  43  22 SW6       30.33F
$$

COZ017>023-064>068-272000-
...SOUTHWEST COLORADO...

CITY           SKY/WX    TMP DP  RH WIND       PRES   REMARKS
DURANGO        PTSUNNY   83  45  26 VRB3      30.34F
CORTEZ         MOSUNNY   84  48  28 S10       30.32F
PAGOSA SPRINGS PTSUNNY   79  42  27 S3        30.44F
TELLURIDE      TSTM      68  50  52 SW6       30.56S
WOLF CREEK PAS NOT AVBL
$$

COZ009-010-012-014-032>034-037-058>063-272000-
...CENTRAL COLORADO...

CITY           SKY/WX    TMP DP  RH WIND       PRES   REMARKS
ASPEN          MOSUNNY   81  40  23 N9G17     30.43F
BUENA VISTA    MOSUNNY   76  42  29 SE7       30.47F
COPPER MTN     CLOUDY    61  36  39 W6        30.81F
BERTHOUD PASS  CLOUDY    54  39  58 SE9       30.87S
COTTONWOOD PAS LGT RAIN  73  37  27 SE8G16    30.64S
GUNNISON       SUNNY     75  46  35 CALM      30.46F
KREMMLING      PTSUNNY   77  43  29 CALM      30.46F
LEADVILLE      PTSUNNY   71  33  24 CALM      30.61F
MONARCH PASS   CLOUDY    55  41  58 E15       30.90S
SALIDA         MOSUNNY  N/A N/A N/A SE12      30.51F
SUNLIGHT       PTSUNNY   63  46  55 CALM      30.73F
WILKERSON PASS NOT AVBL
$$

COZ069>075-272000-
...SAN LUIS VALLEY/SANGRE DE CRISTO MOUNTAINS...

CITY           SKY/WX    TMP DP  RH WIND       PRES   REMARKS
ALAMOSA        MOSUNNY   81  46  29 SE7       30.43F
LA VETA PASS   PTSUNNY   66  50  55 E12G18    30.69R
SAGUACHE       MOSUNNY   79  45  29 S8        30.46F
$$

COZ035-036-038>040-272000-
...NORTHERN COLORADO FRONT RANGE...

CITY           SKY/WX    TMP DP  RH WIND       PRES   REMARKS
DENVER INTL AP MOSUNNY   77  57  50 VRB7      30.36F
DMNS CITY PARK   N/A     76  58  54 NW3       30.37F
AURORA         PTSUNNY   74  59  59 W5        30.39F
FRONT RANGE AP NOT AVBL
ERIE MUNI ARPT MOSUNNY   76  62  61 NW8       30.36F
BOULDER MUN AP CLOUDY    73  59  60 N8        30.37F
CENTENNIAL     MOSUNNY   73  57  57 N5        30.40F
BROOMFIELD     PTSUNNY   77  57  50 N8        30.40F
FORT COLLINS   PTSUNNY   81  61  50 E8        30.36F
LONGMONT       MOSUNNY   82  62  51 N6        30.37F
$$

COZ041-046-047-076>085-087-088-272000-
...PIKES PEAK/PALMER DIVIDE AND SOUTHERN FOOTHILLS...

CITY           SKY/WX    TMP DP  RH WIND       PRES   REMARKS
COLO. SPRINGS  MOSUNNY   80  54  40 SE9G21    30.41F
A. F. ACADEMY  MOSUNNY   76  55  46 E10       30.43S
ELLICOTT       MOSUNNY   80  52  37 E8G22     30.40F
FALCON         PTSUNNY   78  54  43 SE6       30.47F
FORT CARSON    MOSUNNY   78  57  47 S5        30.39F
LIMON          SUNNY     82  46  28 SE13      30.37F
MONUMENT HILL  PTSUNNY   72  55  56 E5        30.46F
TRINIDAD       SUNNY     84  53  34 E10       30.35F
$$

COZ042>045-048>051-090-091-272000-
...NORTHEAST COLORADO...

CITY           SKY/WX    TMP DP  RH WIND       PRES   REMARKS
GREELEY ARPT   MOSUNNY   81  59  47 NE13      30.34F
AKRON          SUNNY     81  48  31 SE14G23   30.35F
BURLINGTON     SUNNY     81  55  40 E8G18     30.33F
WRAY             N/A     87  44  21 E10G16    30.30F
STERLING       SUNNY     88  52  29 S7        30.30F
HOLYOKE        PTSUNNY   82  46  28 E9        30.33S
FORT MORGAN    MOSUNNY   83  49  30 E15G21    30.34F
$$

COZ086-089-092>099-272000-
...SOUTHEAST COLORADO...

CITY           SKY/WX    TMP DP  RH WIND       PRES   REMARKS
PUEBLO         MOSUNNY   84  62  47 S9G16     30.30F
LA JUNTA       MOSUNNY   84  62  47 E10       30.28F
LAMAR          PTSUNNY   82  64  54 E13       30.26S
SPRINGFIELD      N/A     83  61  47 E10G18    30.29F
$$



USA.gov is the U.S. government's official web portal to all federal, state and local government web resources and services.